Regional Weather Roundup
Issued by NWS

Home | Current Version | Previous Version | Graphics & Text | Print | Product List | Glossary On
Versions: 1 2 3 4 5 6 7 8 9 10 11 12 13 14 15 16 17 18 19 20 21 22 23 24 25 26 27 28 29 30 31 32 33 34 35 36 37 38 39 40 41 42 43 44 45 46 47 48 49 50
209
ASUS43 KLOT 271709
RWRIL

ILLINOIS REGIONAL WEATHER ROUNDUP
NATIONAL WEATHER SERVICE CHICAGO/ROMEOVILLE IL
1200 PM CDT TUE JUN 27 2017

NOTE: "FAIR" INDICATES FEW OR NO CLOUDS BELOW 12,000 FEET WITH NO
SIGNIFICANT WEATHER AND/OR OBSTRUCTIONS TO VISIBILITY.

* THESE STATIONS ARE NOT UNDER NWS QUALITY CONTROL. THEY ALSO MAY NOT
  REPORT WEATHER SUCH AS PRECIPITATION OR FOG.

ILZ001-002-007-009-015-016-024-271800-
NORTHWEST ILLINOIS

CITY           SKY/WX    TMP DP  RH WIND       PRES   REMARKS
MOLINE         SUNNY     72  43  35 SE6       30.13F
STERLING*      SUNNY     72  46  39 W5        30.14F
SAVANNA*       SUNNY     71  45  38 NW5       30.13F
$$

ILZ003-004-008-010-011-017-018-271800-
NORTH CENTRAL ILLINOIS

CITY           SKY/WX    TMP DP  RH WIND       PRES   REMARKS
ROCKFORD       MOSUNNY   74  45  35 N9        30.14F
FREEPORT*      SUNNY     71  45  40 NW6       30.14F
ROCHELLE*      SUNNY     69  47  45 W3        30.14F
DE KALB*       SUNNY     71  45  39 CALM      30.14F
PERU*          SUNNY     69  44  40 NW7       30.15S
$$

ILZ005-006-012>014-019>023-271800-
NORTHEAST ILLINOIS

CITY           SKY/WX    TMP DP  RH WIND       PRES   REMARKS
CHICAGO-OHARE  MOSUNNY   73  44  35 NW12      30.12S
CHICAGO-MIDWAY MOSUNNY   72  46  39 NW10      30.12F
AURORA         SUNNY     72  45  37 W3        30.14F
LANSING*       SUNNY     71  44  37 N8        30.13F
JOLIET*        MOSUNNY   73  46  37 W7        30.14F
WAUKEGAN       MOSUNNY   72  48  42 VRB6      30.11S
DUPAGE AIRPORT MOSUNNY   72  48  42 N9        30.12F
WHEELING       MOSUNNY   70  47  43 W10       30.13F
MORRIS*        PTSUNNY   71  44  37 W8        30.13F
ROMEOVILLE*    MOSUNNY   72  42  34 N7        30.13F
$$

LMZ740>746-271800-
SOUTHERN LAKE MICHIGAN

STATION/POSITION SKY/WX   TEMP    WIND        PRES    VSBY  WAVE
                          AIR SEA DIR/SP/G                  HT/PER
                          (F)     (DEG/KT/KT) (MB)    (MI)  (FT/S)
SOUTHERN BUOY              60 61  300/  8/  8 1019.9          1/ 3
WILMETTE HARBOR            64 63  100/  4/  4   N/A           1
HARRISON CRIB              67     130/  7/  8   N/A
BURNHAM HARBOR             66                   N/A
CALUMET HARBOR             67      40/  5/  8 1019.8S
BURNS HARBOR               65     330/  5/  7 1021.0S
MICHIGAN CITY              64     260/ 10/ 11   N/A
MICHIGAN CITY 6N           64 66  280/  6/ 10   N/A           2/ 4
ST. JOSEPH                 64 69  270/ 10/ 14 1020.5          2/ 3
$$

ILZ025>027-034>036-040-047-049-050-058-095>099-271800-
WEST-CENTRAL ILLINOIS

CITY           SKY/WX    TMP DP  RH WIND       PRES   REMARKS
QUINCY         MOSUNNY   73  50  44 SW5       30.14F
GALESBURG*     SUNNY     70  47  43 S6        30.15F
MACOMB*        SUNNY     71  42  35 CALM      30.17F
JACKSONVILLE*  MOSUNNY   71  49  46 CALM      30.15F
PITTSFIELD*    SUNNY     73  50  43 CALM      30.16S
$$

ILZ028>032-037-038-041>044-048-051>054-059>061-271800-
CENTRAL ILLINOIS

CITY           SKY/WX    TMP DP  RH WIND       PRES   REMARKS
PONTIAC        SUNNY     72  44  36 NW6       30.16S
BLOOMINGTON    SUNNY     70  46  42 VRB3      30.17F
DECATUR        SUNNY     71  44  37 VRB5      30.16F
PEORIA         SUNNY     71  45  39 W6        30.16S
LACON*         SUNNY     71  46  40 SW6       30.14F
LINCOLN*       SUNNY     72  48  42 CALM      30.16F
SPRINGFIELD    SUNNY     74  48  39 S3        30.15F
TAYLORVILLE    SUNNY     72  44  37 NE3       30.16F
$$

ILZ033-039-045-046-055>057-062-063-271800-
EAST-CENTRAL ILLINOIS

CITY           SKY/WX    TMP DP  RH WIND       PRES   REMARKS
CHAMPAIGN      SUNNY     73  43  33 VRB3      30.16F
RANTOUL*       MOSUNNY   73  47  40 CALM      30.16S
MATTOON        SUNNY     72  48  42 MISG      30.16F
PARIS*         SUNNY     70  49  46 NW7       30.17F
$$

ILZ079-100>102-271800-
SOUTHWEST ILLINOIS

CITY           SKY/WX    TMP DP  RH WIND       PRES   REMARKS
ALTON          MOSUNNY   73  55  53 CALM      30.15F
BELLEVILLE     SUNNY     75  55  49 CALM      30.16S
CAHOKIA*       MOSUNNY   78  51  38 VRB5      30.14F
SPARTA*        SUNNY     74  54  49 E6        30.15F
$$

ILZ064>066-069>071-074>076-080>082-084>086-088>090-092>094-271800-
SOUTH-CENTRAL ILLINOIS

CITY           SKY/WX    TMP DP  RH WIND       PRES   REMARKS
CARBONDALE     SUNNY     74  55  51 VRB5      30.15S
CAIRO*         SUNNY     76  55  48 NE8       30.13F
EFFINGHAM*     SUNNY     73  51  45 NE3       30.18F
MARION         SUNNY     75  54  46 MISG      30.16S
MT. VERNON     SUNNY     73  55  53 VRB3      30.15F
CENTRALIA*     SUNNY     75  56  51 NW3       30.14F
SALEM*         SUNNY     75  53  47 N3        30.15F
METROPOLIS*    SUNNY     76  55  47 E5        30.14F
$$

ILZ067-068-072-073-078-083-087-091-271800-
SOUTHEAST ILLINOIS

CITY           SKY/WX    TMP DP  RH WIND       PRES   REMARKS
LAWRENCEVILLE  SUNNY     73  49  42 NW7       30.17F
FLORA*         SUNNY     75  51  43 E5        30.16F
FAIRFIELD*     MOSUNNY   74  53  48 NE3       30.15S
HARRISBURG*    SUNNY     74  56  53 CALM      30.15F
ROBINSON*      SUNNY     71  49  45 CALM      30.17F
CARMI*         SUNNY     74  54  48 NE5       30.15S
$$

ABBREVIATIONS USED IN REMARKS
   TC - TEMPERATURE IN CELSIUS
  WCI - WIND CHILL INDEX
   HX - HEAT INDEX
  VSB - VISIBILITY
$$





USA.gov is the U.S. government's official web portal to all federal, state and local government web resources and services.